Flag for U.S.A. Weather past 2 weeks in Wright, Florida, U.S.A.

Now
90 °F

Scattered clouds.


Feels Like: 97 °F
Forecast: 77 / 90 °F
Wind: 9 mph from South

Location: Hurlburt Field

Current Time: Sep 1, 2014 at 1:46:01 PM

Latest Report: Sep 1, 2014 at 12:58 PM


Visibility: 10 mi

Pressure: 30.09 "Hg

Humidity: 55%

Dew point: 72 °F

Location of WrightLocation

Historic Weather in Wright — Graph

°F

Wright temperature yesterday

Maximum temperature yesterday: 90 °F (at 1:58 PM)
Minimum temperature yesterday: 82 °F (at 6:58 AM)
Average temperature yesterday: 86 °F

Past Weeks' High & Low Weather Summary

 TemperatureHumidityPressure
High96 °F (Aug 23, 11:58 AM)87% (Sep 1, 6:58 AM)30.14 "Hg (Sep 1, 6:58 AM)
Low71 °F (Aug 28, 5:58 AM)38% (Aug 24, 12:58 PM)29.79 "Hg (Aug 24, 5:59 PM)
Average84 °F65%30.00 "Hg
* Reported Aug 17 11:58 AM — Sep 1 11:58 AM, Wright, Weather by CustomWeather, © 2014

Note: Actual official high and low records may vary slightly from our data, if they occured in-between our weather recording intervals... More about our weather records

Advertising

Wright weather history for previous 24 hours

 ConditionsComfort  
Time TempWeatherWind HumidityBarometerVisibility
11:58 AM
Sep 1
90 °FScattered clouds.7 mph52%30.11 "Hg10 mi
10:59 AM90 °FPartly sunny.10 mph55%30.11 "Hg10 mi
10:58 AM89 °FLight rain. Partly sunny.9 mph55%30.12 "Hg10 mi
10:01 AM86 °FBroken clouds.7 mph66%30.11 "Hg10 mi
9:58 AM87 °FDrizzle. Broken clouds.7 mph64%30.11 "Hg10 mi
9:03 AM86 °FPassing clouds.6 mph66%30.09 "Hg10 mi
8:58 AM85 °FLight rain. Sunny.6 mph70%30.09 "Hg10 mi
7:58 AM80 °FSunny.2 mph79%30.09 "Hg10 mi
6:58 AM74 °FSunny.No wind87%30.06 "Hg10 mi
5:58 AM75 °FClear.2 mph85%30.05 "Hg10 mi
4:58 AM75 °FPassing clouds.1 mph85%30.04 "Hg10 mi
3:58 AM75 °FClear.1 mph86%30.03 "Hg10 mi
2:58 AM76 °FClear.1 mph83%30.04 "Hg10 mi
1:58 AM83 °FClear.3 mph69%30.05 "Hg10 mi
12:58 AM83 °FClear.3 mph69%30.06 "Hg10 mi
11:58 PM
Aug 31
83 °FClear.2 mph71%30.07 "Hg10 mi
10:58 PM83 °FClear.2 mph70%30.09 "Hg10 mi
9:58 PM84 °FClear.No wind70%30.09 "Hg10 mi
8:58 PM84 °FClear.2 mph72%30.09 "Hg10 mi
7:58 PM84 °FClear.3 mph65%30.07 "Hg10 mi
6:58 PM85 °FSunny.5 mph56%30.06 "Hg10 mi
5:58 PM85 °FPassing clouds.5 mph55%30.06 "Hg10 mi
4:58 PM89 °FSunny.6 mph55%30.07 "Hg10 mi
4:02 PM90 °FScattered clouds.9 mph55%30.07 "Hg10 mi
2:58 PM90 °FScattered clouds.8 mph56%30.07 "Hg10 mi
1:58 PM90 °FSunny.12 mph56%30.09 "Hg10 mi
Weather by CustomWeather, © 2014

See weather overviewHow to use our weather pages